Regional Weather Roundup
Issued by NWS Sioux Falls, SD

Home | Current Version | Previous Version | Graphics & Text | Print | Product List | Glossary Off
Versions: 1 2 3 4 5 6 7 8 9 10 11 12 13 14 15 16 17 18 19 20 21 22 23 24 25 26 27 28 29 30 31 32 33 34 35 36 37 38 39 40 41 42 43 44 45 46 47 48 49 50

000
ASUS43 KFSD 180402
RWRFSD

WEATHER ROUNDUP FOR SE SOUTH DAKOTA/SW MINNESOTA/NW IOWA
NATIONAL WEATHER SERVICE SIOUX FALLS SD
1000 PM CST WED DEC 17 2014

NOTE: "FAIR" INDICATES FEW OR NO CLOUDS BELOW 12,000 FEET WITH NO
SIGNIFICANT WEATHER AND OR OBSTRUCTIONS TO VISIBILITY.


SDZ038>040-050-052>070-180500-
SOUTHEAST SOUTH DAKOTA

CITY           SKY/WX    TMP DP  RH WIND       PRES   REMARKS
CHAMBERLAIN    NOT AVBL
HURON          PTCLDY    10   7  87 S6        30.26S WCI   0
MADISON        FAIR       9   9 100 MISG      30.24R
MITCHELL       MOCLDY    11   8  88 CALM      30.27R
SIOUX FALLS    PTCLDY     8   6  92 NE3       30.26R
WINNER         CLOUDY    22  18  85 SE12      30.15S WCI  10
YANKTON        CLOUDY    14   9  79 CALM      30.28S
$$

MNZ071-072-080-081-089-090-097-098-180500-
SOUTHWEST MINNESOTA

CITY           SKY/WX    TMP DP  RH WIND       PRES   REMARKS
FAIRMONT       PTCLDY    10   9  92 N3        30.27R
JACKSON        PTCLDY    10   7  85 CALM      30.27R
LUVERNE        PTCLDY    16  12  86 CALM      30.26S
MARSHALL       PTCLDY     3   0  85 CALM      30.27S
MONTEVIDEO     PTCLDY     9   7  92 CALM      30.30F
PIPESTONE      PTCLDY     9   7  92 CALM      30.22S
REDWOOD FALLS  PTCLDY    10   7  87 NW3       30.28F
TRACY          MOCLDY    10   8  90 CALM      30.27S
WINDOM           N/A      7   5  92 CALM      30.26R
WORTHINGTON    PTCLDY     9   5  85 CALM      30.26R
$$

IAZ001>003-012>014-020>022-031-032-NEZ013-014-SDZ071-180500-
NORTHWEST IOWA

CITY           SKY/WX    TMP DP  RH WIND       PRES   REMARKS
DENISON        CLOUDY    25  19  80 E6        30.25S WCI  18
ESTHERVILLE    PTCLDY    11   8  88 CALM      30.28R
SIOUX CITY     CLOUDY    25  18  74 E5        30.27S WCI  19
SPENCER        PTCLDY    14  10  84 CALM      30.28R
$$

ABBREVIATIONS USED IN REMARKS
   TC - TEMPERATURE IN CELSIUS
  WCI - WIND CHILL INDEX
   HX - HEAT INDEX
  VSB - VISIBILITY




USA.gov is the U.S. government's official web portal to all federal, state and local government web resources and services.